Location: 433rd Scouts Home(Lloyd Manor Park, Etobicoke )
(43.6722°N, 79.5542°W)
Time: 19:07:54
(UTC-04:00)

Nauka - Pass Details

Date: 02 October 2021
Orbit: 418 x 423 km, 51.6° (Epoch: 18 October)

Event Time Altitude Azimuth Distance (km) Brightness Sun altitude
Rises 19:41:13 0° 303° (WNW) 2,365 ? -8.9°
Reaches altitude 10° 19:43:24 10° 311° (NW) 1,500 ? -9.3°
Maximum altitude 19:46:37 41° 24° (NNE) 619 ? -9.8°
Enters shadow 19:49:02 16° 91° (E) 1,204 ? -10.3°
